Tracking 19170 objects as of 22-May-2018
HD Live streaming from Space Station
objects crossing your sky now

NOAA 16 DEB

Track NOAA 16 DEB now!
10-day predictions


NORAD ID: 42352
Int'l Code: 2000-055QU
Perigee: 840.2 km
Apogee: 865.4 km
Inclination: 98.9 °
Period: 101.8 minutes
Semi major axis: 7223 km
RCS: Unknown
Launch date: September 21, 2000
Source: United States (US)
Launch site: AIR FORCE WESTERN TEST RANGE (AFWTR)

Note: This is SATELLITE DEBRIS
aabbcc
Your satellite tracking list
Your tracking list is empty




NASA's NSSDC Master Catalog

Two Line Element Set (TLE):
1 42352U 00055QU  18141.46251664 -.00005176 +00000-0 -26990-2 0  9994
2 42352 098.9164 218.9911 0017485 195.2752 164.7895 14.14010788109781
Source of the keplerian elements: AFSPC